{"data":{"norad_id":67389,"epoch":"2026-09-20T12:24:35.529696Z","epoch_age_seconds":98893,"freshness":"FRESH","line1":"1 67389U 26004AC  26263.51707789  .00002574  00000+0  12489-3 0  9992","line2":"2 67389  97.4649 261.3984 0003954  32.2956 327.8520 15.19379307 38222","mean_motion":15.19379307,"eccentricity":0.0003954,"inclination_deg":97.4649,"raan_deg":261.3984,"arg_perigee_deg":32.2956,"mean_anomaly_deg":327.852,"bstar":0.00012489,"rev_number":3822,"period_min":94.77554376091,"perigee_km":504.99263688971,"apogee_km":510.43796889084,"semimajor_km":6885.8523028903,"source":"CELESTRAK","updated_at":"2026-09-21T09:00:16.598242Z"}}